Laayoune/Hassan Isl, Western Sahara

9:48 AM WEST on August 20, 2017 (GMT +0100)
Laayoune/Hassan Isl

Weather History for GMML - February, 2014

Change the Weather History Date:

Monday, February 17, 2014

  Actual Average Record
Temperature  
Mean Temperature 60 °F -  
Max Temperature 64 °F - - ()
Min Temperature 55 °F - - ()
Degree Days  
Heating Degree Days 6    
Growing Degree Days 10 (Base 50)    
Moisture  
Dew Point 48 °F    
Average Humidity 65    
Maximum Humidity 82    
Minimum Humidity 48    
Precipitation  
Precipitation 0.00 in - - ()
Sea Level Pressure  
Sea Level Pressure 30.03 in    
Wind  
Wind Speed 16 mph ()    
Max Wind Speed 31 mph    
Max Gust Speed -    
Visibility 4.8 miles    
Events Rain    
T = Trace of Precipitation, MM = Missing Value Source: Averaged Metar Reports

Daily Weather History Graph

Daily Weather History Graph

Search for Another Location

Airport or City:

Trip Planner

Search our weather history database for the weather conditions in past years. The results will help you decide how hot, cold, wet, or windy it might be!

Date:

Astronomy

Feb. 17, 2014 Rise Set
Actual Time 7:28 AM WET 6:46 PM WET
Civil Twilight 7:04 AM WET 7:09 PM WET
Nautical Twilight 6:37 AM WET 7:37 PM WET
Astronomical Twilight 6:09 AM WET 8:04 PM WET
Moon 9:09 PM WET (2/17) 8:38 AM WET (2/17)
Length of Visible Light 12h 05m
Length of Day
11h 18m
Waning Gibbous, 94% of the Moon is Illuminated
Feb 17
Waning Gibbous
Feb 22
Last Quarter
Mar 1
New
Mar 8
First Quarter
Mar 16
Full

Hourly Weather History & Observations

Time (WET) Temp. Dew Point Humidity Pressure Visibility Wind Dir Wind Speed Gust Speed Precip Events Conditions
12:00 AM 57.2 °F 46.4 °F 67% 30.01 in 3.7 mi North 20.7 mph - N/A   Scattered Clouds
1:00 AM 57.2 °F 46.4 °F 67% 29.98 in 3.7 mi North 18.4 mph - N/A   Scattered Clouds
2:00 AM 57.2 °F 46.4 °F 67% 29.98 in 3.7 mi North 18.4 mph - N/A   Scattered Clouds
3:00 AM 55.4 °F 46.4 °F 72% 29.98 in 3.7 mi North 16.1 mph - N/A   Scattered Clouds
5:00 AM 57.2 °F 48.2 °F 72% 29.98 in 3.7 mi North 24.2 mph - N/A   Scattered Clouds
6:00 AM 57.2 °F 48.2 °F 72% 30.01 in 3.7 mi North 31.1 mph - N/A   Scattered Clouds
7:00 AM 57.2 °F 48.2 °F 72% 30.01 in 3.7 mi NE 12.7 mph - N/A   Mostly Cloudy
8:00 AM 57.2 °F 46.4 °F 67% 30.04 in 5.0 mi NNE 19.6 mph - N/A   Mostly Cloudy
9:00 AM 57.2 °F 48.2 °F 72% 30.04 in 6.2 mi NNE 15.0 mph - N/A   Mostly Cloudy
10:00 AM 60.8 °F 44.6 °F 55% 30.06 in 5.0 mi North 21.9 mph - N/A   Mostly Cloudy
11:00 AM 62.6 °F 42.8 °F 48% 30.06 in 5.0 mi North 23.0 mph - N/A   Mostly Cloudy
12:00 PM 64.4 °F 44.6 °F 49% 30.04 in 6.2 mi NNW 23.0 mph - N/A   Mostly Cloudy
1:00 PM 64.4 °F 48.2 °F 56% 30.04 in 6.2 mi NNW 21.9 mph - N/A   Mostly Cloudy
1:30 PM 64.4 °F 48.2 °F 56% 30.04 in 6.2 mi North 23.0 mph - N/A   Mostly Cloudy
2:00 PM 64.4 °F 48.2 °F 56% 30.04 in 5.0 mi North 20.7 mph - N/A   Mostly Cloudy
3:00 PM 64.4 °F 46.4 °F 52% 30.04 in 5.0 mi North 18.4 mph - N/A   Scattered Clouds
4:00 PM 64.4 °F 48.2 °F 56% 30.04 in 5.0 mi North 21.9 mph - N/A   Scattered Clouds
5:00 PM 64.4 °F 48.2 °F 56% 30.04 in 5.0 mi North 15.0 mph - N/A   Mostly Cloudy
6:00 PM 62.6 °F 50.0 °F 63% 30.06 in 5.0 mi North 13.8 mph - N/A   Scattered Clouds
7:00 PM 60.8 °F 51.8 °F 72% 30.04 in 5.0 mi NW 8.1 mph - N/A   Scattered Clouds
8:00 PM 59.0 °F 53.6 °F 82% 30.06 in 5.0 mi NW 5.8 mph - N/A   Partly Cloudy
9:00 PM 60.8 °F 53.6 °F 77% 30.06 in 5.0 mi NNW 10.4 mph - N/A   Scattered Clouds
10:00 PM 59.0 °F 53.6 °F 82% 30.06 in 5.0 mi NW 5.8 mph - N/A   Mostly Cloudy
11:00 PM 60.8 °F 55.4 °F 82% 30.06 in 3.7 mi WNW 6.9 mph - N/A Rain Light Rain